Wind_Speed
45 43 42 42 41 41 41 41 40 39 39 38 37 36 36 36 35 35 35 36 36 36 36 36 35 36 36 36 36 37 38 38 39 39 40 40 40 40
47 46 45 44 43 43 42 42 42 41 40 39 39 38 38 38 38 37 37 38 38 37 38 38 38 38 38 38 39 39 39 40 41 41 42 42 42 42
49 48 47 46 46 45 44 44 43 42 41 40 40 40 40 40 39 39 39 39 39 39 39 40 40 40 40 40 40 41 41 42 43 43 44 44 44 44
50 49 48 47 47 46 46 45 45 45 44 42 42 42 42 42 41 41 41 41 41 41 42 42 42 42 42 42 42 43 43 44 44 45 46 46 46 46
51 50 49 49 48 48 48 47 47 47 46 45 44 44 44 44 44 43 43 43 43 43 44 43 43 44 44 44 44 45 45 46 46 47 47 47 47 47
51 50 50 50 50 50 49 49 49 48 47 47 46 46 46 46 46 46 46 45 45 45 45 45 45 46 46 46 47 47 47 48 48 49 49 49 49 49
54 52 51 51 51 51 50 50 50 49 49 48 48 48 48 47 47 48 48 47 47 47 47 47 47 48 48 48 48 49 49 49 50 50 50 50 50 50
55 54 53 53 52 52 51 51 50 50 49 49 49 49 50 49 49 49 49 50 49 49 49 49 49 49 50 50 50 50 50 51 51 51 51 51 51 51
57 55 54 54 54 53 52 52 51 51 51 51 51 51 51 50 50 50 50 50 49 50 50 50 50 50 50 50 51 51 51 51 51 51 52 52 53 53
58 56 55 54 54 54 53 52 51 52 52 52 51 51 52 51 51 51 51 51 50 50 50 50 50 51 51 52 52 52 52 52 52 52 53 53 53 53
58 58 56 56 55 54 54 53 53 52 52 52 52 52 52 52 52 52 52 52 51 51 51 51 51 52 52 52 52 52 52 52 52 53 53 53 54 55
58 57 56 56 55 54 54 54 53 52 52 52 52 52 52 52 52 52 52 52 52 52 52 52 52 52 52 52 52 52 52 52 53 53 53 53 54 54
57 56 56 55 55 55 55 54 54 53 53 53 53 53 52 52 52 52 52 52 52 52 52 53 53 53 53 52 51 52 52 52 53 53 53 54 54 55
56 56 57 57 56 56 56 55 55 54 54 54 53 53 53 52 52 52 52 52 52 52 53 53 53 53 53 52 52 52 52 53 53 53 54 54 55 55
55 55 55 55 56 56 56 55 55 54 54 54 54 54 53 53 53 52 52 52 52 53 53 53 53 53 53 53 53 52 52 53 53 54 54 55 55 55
55 54 54 54 55 55 55 56 56 55 55 55 55 55 55 54 54 54 54 54 54 53 53 54 53 53 53 53 52 52 53 53 53 55 55 55 55 55
54 54 54 54 54 55 55 55 55 55 55 55 55 55 55 55 55 55 55 55 54 54 54 54 53 53 53 53 53 53 54 54 55 55 55 55 55 55
52 52 53 53 54 54 55 55 55 55 54 54 53 53 53 53 54 54 54 54 54 54 53 53 53 53 53 53 54 54 55 55 56 56 56 55 55 55
50 51 52 52 53 53 53 54 54 54 53 53 53 53 52 52 52 52 53 53 53 53 54 54 54 54 54 54 54 55 55 55 55 55 55 55 55 54
49 50 51 52 52 52 52 52 52 53 53 53 53 52 52 52 52 52 52 53 53 53 53 54 55 55 55 55 55 55 56 56 55 55 55 55 55 54
48 49 50 51 51 51 51 52 52 52 53 53 53 53 53 53 53 53 52 53 53 54 54 54 55 55 55 55 55 55 56 56 56 55 55 55 54 52
47 47 48 49 49 50 50 50 50 51 52 53 53 53 53 53 53 53 53 53 53 54 54 54 54 54 54 55 55 55 55 55 55 55 54 53 52 50
45 46 46 47 47 49 49 49 49 50 51 52 52 51 51 52 52 52 52 52 52 52 53 53 53 53 53 53 53 54 54 53 53 52 51 51 49 49
Wind_Direction
244 245 246 248 250 250 251 251 253 255 256 257 259 261 263 264 266 269 271 272 274 276 278 280 281 282 283 285 287 288 289 290 290 291 292 293 295 295
245 245 246 247 248 249 250 252 253 254 255 257 259 261 263 264 266 268 270 271 273 275 278 279 280 281 282 284 285 287 288 288 289 290 292 293 293 294
247 247 247 248 249 250 251 252 253 254 255 257 259 261 264 265 266 267 269 271 273 275 277 278 280 281 282 283 285 287 288 288 289 290 291 292 293 294
246 247 247 249 250 250 251 252 254 255 257 258 259 261 264 266 267 268 269 271 273 275 276 277 279 281 282 283 284 286 287 288 289 290 291 292 292 293
246 247 246 247 249 250 251 252 254 256 257 258 259 261 264 266 267 269 271 272 274 275 276 276 278 280 281 283 284 285 286 287 288 289 290 291 292 293
246 247 247 247 248 250 251 252 254 256 257 258 259 261 263 265 267 268 270 272 274 275 276 277 278 280 281 282 283 284 285 286 287 288 289 290 291 292
245 246 247 248 249 249 250 252 254 256 257 258 259 261 262 264 267 268 269 271 273 275 275 277 278 281 281 282 283 283 284 285 287 288 288 289 290 291
245 245 246 248 248 249 250 252 254 256 257 258 260 261 263 264 266 267 269 271 272 274 275 276 278 279 280 282 283 283 284 285 286 287 288 289 290 291
246 246 247 248 249 250 251 252 254 256 257 259 261 262 263 264 266 267 269 271 272 273 274 276 277 278 279 281 282 284 284 285 286 287 288 289 290 291
246 246 247 249 250 251 251 252 254 256 257 259 261 262 262 263 265 267 269 270 271 272 274 276 277 278 280 281 283 284 285 286 286 287 288 289 290 291
246 246 247 248 249 250 252 252 253 255 257 258 260 261 262 264 266 267 269 270 271 272 274 276 277 278 280 282 283 283 284 285 286 287 289 290 291 292
245 246 247 248 249 251 253 253 254 255 257 259 260 261 262 264 266 267 269 270 271 272 273 275 276 278 279 281 282 283 284 285 286 287 289 290 291 292
247 247 248 249 249 252 253 254 255 255 257 258 260 261 263 264 266 267 268 269 270 272 273 274 276 278 279 280 281 283 284 285 286 287 289 290 291 292
247 248 248 249 250 251 253 254 254 255 256 258 259 260 262 263 265 266 267 269 270 272 273 274 276 277 279 280 281 282 284 285 286 288 289 290 292 292
248 249 249 249 249 251 252 254 254 255 257 258 259 260 261 262 264 265 267 269 271 272 274 275 276 277 279 280 281 282 283 285 287 288 289 291 292 292
247 248 249 249 250 251 252 253 254 255 256 258 259 260 261 263 264 266 267 269 271 272 274 276 277 278 279 280 281 282 283 285 286 288 290 291 292 292
248 249 249 250 250 251 252 253 254 255 257 258 260 261 262 264 265 266 268 269 270 272 274 275 276 278 279 280 281 283 284 285 287 288 289 290 291 292
248 249 249 250 250 251 253 253 254 256 257 259 260 262 263 264 265 267 268 269 271 272 274 275 277 278 279 280 282 283 284 285 286 288 289 290 291 291
249 249 249 250 251 252 252 253 254 256 257 258 260 261 263 264 266 267 269 270 271 273 274 276 277 278 279 280 281 283 284 285 286 287 289 290 291 291
249 250 250 250 251 252 253 253 254 255 257 259 260 262 262 264 266 268 270 270 271 272 274 275 277 278 279 280 281 282 284 285 286 287 288 289 290 291
250 250 251 251 251 252 254 254 255 256 257 259 260 261 263 265 267 269 270 270 272 273 274 276 277 278 280 281 282 282 283 285 286 287 288 289 289 290
250 251 252 253 253 253 254 255 256 257 258 259 260 262 263 265 266 268 270 271 272 273 275 276 278 279 280 281 282 282 283 284 286 287 288 289 289 290
250 251 252 253 254 254 255 255 256 257 258 259 261 262 263 265 266 268 270 271 272 274 275 277 278 278 279 281 282 283 283 284 285 286 288 289 290 290
Height
5731 5734 5737 5741 5744 5747 5750 5753 5756 5758 5761 5762 5763 5764 5765 5767 5768 5769 5769 5769 5769 5769 5768 5768 5767 5766 5765 5764 5763 5761 5759 5758 5756 5754 5751 5749 5746 5744
5720 5723 5727 5730 5733 5736 5739 5742 5745 5748 5751 5752 5753 5755 5756 5757 5758 5759 5759 5760 5760 5759 5759 5758 5758 5757 5756 5755 5753 5752 5750 5748 5746 5744 5741 5739 5736 5734
5708 5712 5716 5719 5723 5726 5729 5731 5734 5737 5740 5742 5743 5745 5746 5747 5748 5749 5750 5750 5750 5750 5749 5748 5747 5747 5746 5745 5743 5741 5739 5737 5735 5733 5731 5728 5726 5723
5697 5700 5704 5708 5711 5714 5718 5721 5723 5726 5729 5731 5733 5734 5735 5736 5738 5739 5739 5739 5740 5739 5739 5738 5737 5736 5735 5734 5732 5730 5728 5726 5724 5722 5720 5717 5714 5711
5684 5688 5692 5696 5700 5703 5706 5709 5712 5714 5717 5720 5722 5723 5724 5725 5727 5727 5728 5728 5728 5728 5728 5727 5726 5725 5724 5723 5721 5719 5717 5715 5713 5710 5708 5705 5702 5699
5672 5676 5680 5684 5688 5691 5694 5697 5700 5703 5705 5708 5710 5712 5713 5714 5715 5716 5717 5717 5717 5717 5716 5716 5715 5713 5712 5711 5709 5707 5705 5703 5701 5698 5695 5693 5690 5687
5659 5663 5667 5672 5675 5679 5682 5685 5688 5690 5693 5695 5698 5699 5701 5702 5703 5704 5705 5705 5705 5705 5704 5704 5703 5701 5700 5698 5696 5694 5692 5690 5688 5686 5683 5680 5677 5674
5645 5650 5654 5658 5662 5666 5669 5672 5675 5678 5681 5683 5685 5687 5689 5690 5691 5691 5692 5693 5693 5693 5692 5691 5690 5689 5687 5686 5684 5682 5680 5677 5675 5672 5670 5667 5664 5661
5631 5636 5640 5645 5648 5652 5656 5659 5662 5665 5668 5670 5672 5674 5676 5677 5678 5679 5679 5679 5680 5679 5679 5678 5677 5676 5674 5672 5671 5669 5667 5664 5662 5659 5656 5654 5651 5647
5617 5622 5627 5631 5635 5639 5642 5646 5649 5652 5655 5657 5660 5661 5662 5663 5664 5665 5665 5666 5666 5666 5665 5665 5664 5663 5661 5659 5657 5655 5653 5651 5648 5645 5643 5640 5637 5633
5602 5607 5612 5617 5621 5625 5628 5632 5635 5638 5640 5643 5645 5647 5648 5649 5650 5651 5651 5652 5653 5653 5652 5651 5651 5649 5648 5647 5644 5642 5639 5637 5634 5632 5629 5626 5622 5619
5588 5593 5598 5602 5606 5610 5614 5618 5621 5624 5626 5629 5631 5633 5634 5635 5636 5637 5638 5638 5638 5639 5638 5637 5637 5635 5635 5634 5631 5628 5625 5623 5620 5618 5615 5611 5608 5605
5572 5578 5583 5587 5592 5596 5600 5603 5607 5610 5612 5615 5617 5619 5620 5621 5622 5623 5624 5624 5624 5625 5624 5623 5623 5621 5620 5620 5618 5615 5612 5609 5607 5604 5601 5597 5594 5590
5558 5563 5568 5573 5577 5581 5585 5589 5592 5595 5598 5600 5602 5604 5606 5608 5608 5609 5609 5609 5610 5610 5609 5609 5608 5607 5606 5605 5604 5602 5598 5596 5593 5590 5587 5583 5579 5575
5544 5549 5554 5558 5562 5566 5570 5573 5577 5580 5583 5586 5588 5590 5592 5593 5594 5594 5595 5595 5595 5595 5595 5594 5594 5593 5592 5591 5589 5587 5585 5582 5579 5576 5572 5569 5565 5561
5529 5534 5538 5542 5546 5550 5554 5558 5562 5565 5568 5571 5573 5575 5576 5578 5579 5580 5580 5581 5581 5581 5580 5579 5579 5578 5577 5576 5574 5573 5570 5568 5565 5561 5558 5555 5551 5546
5514 5519 5523 5527 5531 5536 5540 5543 5547 5550 5553 5556 5558 5560 5561 5562 5563 5564 5565 5565 5566 5566 5565 5565 5564 5563 5562 5561 5559 5557 5555 5552 5549 5546 5544 5540 5536 5531
5499 5504 5509 5513 5517 5521 5525 5529 5532 5535 5538 5540 5542 5544 5546 5547 5548 5549 5550 5550 5551 5551 5550 5550 5549 5548 5547 5546 5544 5542 5540 5537 5534 5531 5528 5525 5522 5517
5485 5490 5494 5499 5503 5506 5510 5514 5517 5520 5523 5525 5527 5529 5531 5532 5533 5534 5535 5535 5535 5536 5535 5535 5534 5533 5532 5531 5530 5526 5524 5522 5519 5516 5513 5509 5507 5503
5471 5475 5480 5484 5488 5492 5495 5499 5502 5505 5508 5511 5513 5515 5516 5517 5519 5519 5520 5521 5521 5521 5521 5520 5519 5518 5516 5515 5514 5512 5508 5506 5503 5501 5497 5494 5491 5487
5458 5462 5466 5470 5473 5477 5481 5484 5487 5490 5493 5496 5498 5500 5501 5503 5504 5504 5505 5505 5505 5505 5505 5505 5504 5502 5500 5499 5498 5496 5493 5490 5487 5485 5482 5479 5476 5472
5444 5448 5452 5455 5459 5462 5466 5469 5472 5475 5478 5481 5483 5485 5486 5487 5488 5489 5490 5490 5490 5490 5490 5489 5488 5486 5485 5483 5481 5480 5478 5475 5471 5468 5465 5462 5459 5457
5432 5435 5438 5441 5445 5448 5451 5455 5458 5461 5463 5465 5467 5469 5470 5472 5473 5474 5475 5475 5475 5475 5474 5473 5472 5471 5469 5467 5465 5464 5461 5459 5457 5454 5450 5447 5444 5441